Terminal Aerodrome Forecast
Issued by NWS

Home | Current Version | Previous Version | Text Only | Print | Product List | Glossary On
Versions: 1 2 3 4 5 6 7 8 9 10 11 12 13 14 15 16 17 18 19 20 21 22 23 24 25 26 27 28 29 30 31 32 33 34 35 36 37 38 39 40 41 42 43 44 45 46 47 48 49 50
708
FTUS44 KHGX 282345 RRA
TAFIAH
TAF
KIAH 282345Z 2900/3006 14018G25KT P6SM SCT025 SCT250
     FM290300 15015KT P6SM BKN025
     FM291000 15012KT P6SM VCSH SCT007 BKN012
     FM291500 15013G22KT P6SM VCTS BKN020CB BKN030 OVC250
      TEMPO 2918/2920 VRB10G25KT 3SM TSRA BKN025CB OVC060
     FM292200 18011G18KT P6SM OVC050
     FM300300 20006KT P6SM VCSH BKN025=

USA.gov is the U.S. government's official web portal to all federal, state and local government web resources and services.